Location: Newark
(36.2667°N, 50.0000°E)
Time: 13:24:40
(UTC+00:00)

N. Korean satellite - Visible Passes

Search period start: 23 September 2020 00:00
Search period end: 03 October 2020 00:00
Orbit: 455 x 503 km, 97.2° (Epoch: 22 September)

Date Brightness Start Highest point End Pass type
(mag) Time Alt. Az. Time Alt. Az. Time Alt. Az.
23 Sep 9.2 01:33:39 10° NE 01:36:41 25° E 01:39:39 10° SSE visible
24 Sep 10.1 01:09:18 10° ENE 01:10:30 11° E 01:11:41 10° ESE visible
26 Sep 8.2 01:48:36 10° NNE 01:52:02 39° E 01:55:23 10° S visible
27 Sep 9.7 01:23:23 10° NE 01:25:54 18° E 01:28:23 10° SE visible
29 Sep 7.0 02:03:44 10° NNE 02:07:19 68° E 02:10:49 10° S visible
30 Sep 8.9 01:38:06 10° NE 01:41:14 28° E 01:44:18 10° SSE visible
01 Oct 10.0 01:13:23 10° ENE 01:15:03 13° E 01:16:43 10° ESE visible
